Regional Weather Roundup
Issued by NWS

Home | Current Version | Previous Version | Text Only | Print | Product List | Glossary On
Versions: 1 2 3 4 5 6 7 8 9 10 11 12 13 14 15 16 17 18 19 20 21 22 23 24 25 26 27 28 29 30 31 32 33 34 35 36 37 38 39 40 41 42 43 44 45 46 47 48 49 50
000
ASUS43 KMKX 281421
RWRWI

WISCONSIN REGIONAL WEATHER ROUNDUP
NATIONAL WEATHER SERVICE MILWAUKEE/SULLIVAN WI
800 AM CST FRI NOV 28 2014

NOTE: "FAIR" INDICATES FEW OR NO CLOUDS BELOW 12,000 FEET WITH NO
SIGNIFICANT WEATHER AND/OR OBSTRUCTIONS TO VISIBILITY.

WIZ001-002-006>008-014>016-023>028-281500-
NORTHWEST WISCONSIN

CITY           SKY/WX    TMP DP  RH WIND       PRES   REMARKS
SUPERIOR ARPT  MIX PCPN  10   7  89 E3        30.09F
ASHLAND        LGT SNOW   9   5  84 CALM      30.11F FOG
HAYWARD        CLOUDY     9   5  84 SE5       30.04F WCI   1
SIREN          FLURRIES  11   6  81 SE5       30.04F WCI   3
CUMBERLAND     LGT SNOW  10   5  79 SE8       30.02F WCI  -1
RICE LAKE      CLOUDY    11   7  83 E9        30.05F WCI  -2
CHETEK         CLOUDY    11   7  84 E8        30.04F WCI  -1
LADYSMITH      CLOUDY    11   7  83 SE7       30.07F WCI   0
EAU CLAIRE     CLOUDY    12   7  80 SE7       30.07S WCI   1
MENOMONIE      CLOUDY    13   9  81 E8        30.07S WCI   2
NEW RICHMOND   FLURRIES  12   8  82 SE8       30.02F WCI   1
OSCEOLA        CLOUDY    13   9  83 SE10      30.05F WCI   0
$$

WIZ003>005-009-010-017-018-281500-
NORTH CENTRAL WISCONSIN

CITY           SKY/WX    TMP DP  RH WIND       PRES   REMARKS
MANITOWISH WTR FLURRIES   5   1  83 SE5       30.05F WCI  -4
ARBOR VITAE    FLURRIES   9   5  83 SE6       30.06S WCI  -1
WOODRUFF       FLURRIES   9   5  83 SE6       30.06S WCI  -1
RHINELANDER    CLOUDY     6   2  83 SE5       30.08F WCI  -3
EAGLE RIVER    LGT SNOW   7   1  78 CALM      30.07F
LAND O LAKES   LGT SNOW   7   3  85 S5        30.07F WCI  -2
PHILLIPS       CLOUDY     8   5  87 SE6       30.05F WCI  -2
TOMAHAWK       LGT SNOW   7   3  86 CALM      30.08F
MEDFORD        FLURRIES   8   4  83 SE6       30.06F WCI  -2
MERRILL        FLURRIES   8   4  85 SE6       30.10F WCI  -2
$$

WIZ029-030-035-036-043>047-281500-
CENTRAL WISCONSIN

CITY           SKY/WX    TMP DP  RH WIND       PRES   REMARKS
WAUSAU         CLOUDY     9   5  84 SE7       30.11S FOG     WCI  -2
MOSINEE        FLURRIES   9   9 100 SE8       30.11F WCI  -4
MARSHFIELD     CLOUDY    11   6  81 SE9       30.09F WCI  -2
STEVENS POINT  CLOUDY     8   5  89 SE6       30.13F WCI  -3
WAUPACA        LGT SNOW  14   9  80 E6        30.18F WCI   5
WAUTOMA        CLOUDY    13  10  87 E6        30.17F WCI   4
WISC RAPIDS    CLOUDY    11   6  81 SE9       30.14F WCI  -2
CAMP DOUGLAS   CLOUDY    14  13  95 E9        30.10F WCI   1
$$

WIZ011>013-019>022-031-037>040-048>050-281500-
NORTHEAST WISCONSIN

CITY           SKY/WX    TMP DP  RH WIND       PRES   REMARKS
ANTIGO         FLURRIES   6   2  86 SE7       30.10S WCI  -6
SHAWANO        LGT SNOW  11   7  83 SE3       30.19F
OCONTO         CLOUDY    11   7  83 S3        30.22F
STURGEON BAY   CLOUDY    12   3  67 SW6       30.20F WCI   3
GREEN BAY      LGT SNOW  13   9  84 S8        30.21F FOG     WCI   2
MANITOWOC      LGT SNOW  14   8  77 SW7       30.24F WCI   4
APPLETON       LGT SNOW  12   9  85 VRB6      30.19F WCI   3
CLINTONVILLE   LGT SNOW  10   7  85 SE3       30.18F
OSHKOSH        LGT SNOW  15  10  80 MISG      30.18F
$$

WIZ032>034-041-042-053>061-281500-
SOUTHWEST WISCONSIN

CITY           SKY/WX    TMP DP  RH WIND       PRES   REMARKS
LA CROSSE      CLOUDY    18  10  71 S9        30.08F WCI   7
SPARTA         CLOUDY    16  10  79 SE7       30.09F WCI   6
VIROQUA        CLOUDY    14  10  86 SE12      30.04F WCI   0
BOSCOBEL       PTCLDY    19  10  68 VRB3      30.12F
PRAIRIE DU CHI MOCLDY    18   8  65 SE9       30.10F WCI   6
PLATTEVILLE    PTCLDY    16  10  77 SE14G21   30.11F WCI   2
$$

WIZ056-057-062-063-064-067-068-281500-
SOUTH CENTRAL WISCONSIN

CITY           SKY/WX    TMP DP  RH WIND       PRES   REMARKS
REEDSBURG      CLOUDY    15  10  81 SE7       30.11F WCI   5
BARABOO/DELLS  CLOUDY    15  11  82 SE9       30.11F WCI   3
LONE ROCK      PTCLDY    20   9  62 SE7       30.14F WCI  11
MINERAL POINT  MOCLDY    18  10  73 SE13      30.09F WCI   4
MADISON        CLOUDY    17  11  77 S15       30.16F WCI   2
MIDDLETON      CLOUDY    18  11  73 SE10      30.14F WCI   7
WATERTOWN      LGT SNOW  15  13  92 S6        30.18F WCI   7
MONROE         CLOUDY    18  12  79 SE14      30.13F WCI   4
JANESVILLE     CLOUDY    19  12  73 SE12G17   30.19F WCI   7
$$

WIZ051-052-058>065-066-070>072-281500-
SOUTHEAST WISCONSIN

CITY           SKY/WX    TMP DP  RH WIND       PRES   REMARKS
MILWAUKEE      LGT SNOW  18  12  77 S8        30.23F WCI   8
WAUKESHA       LGT SNOW  16  12  86 SE8       30.22F WCI   5
MILWAUKEE/TIMM LGT SNOW  18  10  73 S6        30.24F WCI   9
RACINE         LGT SNOW  19  13  77 S9        30.26F WCI   8
BURLINGTON     LGT SNOW  17  14  90 S6        30.21F WCI   8
KENOSHA        LGT SNOW  19  15  84 S7        30.24F FOG     WCI  10
FOND DU LAC    LGT SNOW  15  10  80 S10       30.19F WCI   2
SHEBOYGAN      LGT SNOW  14  10  84 S5        30.22F FOG     WCI   6
WEST BEND      LGT SNOW  16  12  86 SE5       30.20F WCI   9
JUNEAU         LGT SNOW  15  12  88 SE9       30.17F WCI   3
$$

LSZ147-162-281500-
LAKE SUPERIOR

STATION/POSITION TIME  TEMP    WIND        PRES    WAVE
                       AIR SEA DIR/SP/G            HT/PER
                 (UTC) (F)     (DEG/KT/KT) (MB)    (FT/S)
DEVILS ISLAND    1400   14     160/  3/  4 1021.3F
PORT WING        1300   10     150/  3/  5 1019.6F
SAXON HARBOR     1300   11      CALM  / 16 1020.0
$$

LMZ867-665-643>646-281500-
LAKE MICHIGAN

STATION/POSITION TIME  TEMP    WIND        PRES    WAVE
                       AIR SEA DIR/SP/G            HT/PER
                 (UTC) (F)     (DEG/KT/KT) (MB)    (FT/S)
CHAMBERS ISLAND  1300   17     180/  4/  8 1023.7F
N MID LAKE BUOY  1350   22 42  240/ 10/ 14 1024.3F   1/ 3
NORTHPORT PIER   1316   15     210/  3/  6 1023.7F
KEWAUNEE LAKESHO 1400   14     240/  5/ 10 1022.9F
SHEBOYGAN LAKESH 1400   16 34  230/ 12/ 13 1025.1F
PORT WASHINGTON  1340   17     210/  7/  9 1025.1F
MILWAUKEE LAKESH 1400   19     190/ 10/ 12   N/A
S MID LAKE BUOY  1350   26 42  210/ 12/ 19 1025.9F   2/ 6
KENOSHA   LAKESH 1400   19     180/  9/ 11 1024.0F
$$

TC  - TEMPERATURE IN CELSIUS
VSB - VISIBILITY IN STATUTE MILES
WCI - WIND CHILL INDEX
HX  - HEAT INDEX



USA.gov is the U.S. government's official web portal to all federal, state and local government web resources and services.